DW7267 Weather Reports


time (UTC)temp
C
wind
direction
speed
KPH
gust
KPH
rain 1hr
cm
rain 24hr
cm
rain mn
cm
humidity
%
barometer
mb
20260904062823 17 86 3.2 16.1 0.05 0.05 0.05 83 1020.2
20260904062322 18 114 3.2 16.1 0.05 0.05 0.05 82 1020.3
20260904061822 18 133 3.2 16.1 0.05 0.05 0.05 78 1020.3
20260904061316 19 117 1.6 16.1 0.03 0.03 0.03 76 1020.4
20260904060816 19 213 0.0 9.7 0.00 0.00 0.00 73 1020.4
20260904060315 18 251 0.0 6.4 0.00 0.00 0.00 74 1020.2
20260904055816 17 259 0.0 6.4 0.00 0.00 0.00 77 1020.2
20260904055317 17 228 0.0 0.0 0.00 0.00 0.00 79 1020.0
20260904054818 16 228 0.0 0.0 0.00 0.00 0.00 81 1020.0
20260904054311 16 228 0.0 0.0 0.00 0.00 0.00 81 1020.0
20260904053810 16 228 0.0 0.0 0.00 0.00 0.00 81 1020.0
20260904053312 16 228 0.0 0.0 0.00 0.00 0.00 81 1020.0
20260904052812 16 228 0.0 0.0 0.00 0.00 0.00 82 1019.9
20260904052310 16 228 0.0 0.0 0.00 0.00 0.00 82 1019.9
20260904051809 15 228 0.0 0.0 0.00 0.00 0.00 82 1019.9
20260904051304 15 228 0.0 0.0 0.00 0.00 0.00 82 1019.9
20260904050802 15 228 0.0 0.0 0.00 0.00 0.00 81 1020.0
20260904050532 15 228 0.0 0.0 0.00 0.00 0.00 81 1019.9
20260904045758 15 228 0.0 0.0 0.00 0.00 0.00 81 1020.0
20260904045258 15 228 0.0 0.0 0.00 0.00 0.00 81 1020.0
20260904044752 15 228 0.0 0.0 0.00 0.00 0.00 81 1020.2
20260904044251 15 228 0.0 0.0 0.00 0.00 0.00 81 1020.2
20260904043748 15 228 0.0 0.0 0.00 0.00 0.00 80 1020.2
20260904043246 15 228 0.0 0.0 0.00 0.00 0.00 80 1020.2
20260904043018 15 228 0.0 0.0 0.00 0.00 0.00 80 1020.2
20260904042241 15 228 0.0 0.0 0.00 0.00 0.00 79 1020.2
20260904041738 16 228 0.0 0.0 0.00 0.00 0.00 78 1020.2
20260904041236 16 228 0.0 0.0 0.00 0.00 0.00 78 1020.2
20260904040734 16 228 0.0 0.0 0.00 0.00 0.00 78 1020.0
20260904040504 16 228 0.0 0.0 0.00 0.00 0.00 77 1020.0
20260904035230 16 228 0.0 0.0 0.00 0.00 0.00 76 1020.0
20260904034730 16 228 0.0 0.0 0.00 0.00 0.00 76 1020.0
20260904034501 16 228 0.0 0.0 0.00 0.00 0.00 75 1019.9
20260904033729 16 228 0.0 0.0 0.00 0.00 0.00 75 1019.8
20260904033228 16 228 0.0 0.0 0.00 0.00 0.00 74 1019.8
20260904032957 16 228 0.0 0.0 0.00 0.00 0.00 74 1019.8
20260904032222 17 228 0.0 0.0 0.00 0.00 0.00 73 1019.8
20260904031724 17 228 0.0 0.0 0.00 0.00 0.00 72 1019.7
20260904031224 17 228 0.0 0.0 0.00 0.00 0.00 71 1019.7
20260904030722 17 228 0.0 0.0 0.00 0.00 0.00 70 1019.7
20260904030224 17 228 0.0 0.0 0.00 0.00 0.00 69 1019.7
20260904025716 18 228 0.0 0.0 0.00 0.00 0.00 68 1019.7
20260904025214 18 228 0.0 0.0 0.00 0.00 0.00 67 1019.6
20260904024712 18 228 0.0 0.0 0.00 0.00 0.00 66 1019.6
20260904024210 18 228 0.0 0.0 0.00 0.00 0.00 64 1019.4
20260904023711 19 228 0.0 0.0 0.00 0.00 0.00 63 1019.4
20260904023204 19 228 0.0 0.0 0.00 0.00 0.00 62 1019.3
20260904022702 20 228 0.0 0.0 0.00 0.00 0.00 61 1019.2
20260904022200 20 228 0.0 0.0 0.00 0.00 0.00 60 1019.2
20260904021658 20 228 0.0 0.0 0.00 0.00 0.00 58 1019.2
20260904021200 20 228 0.0 0.0 0.00 0.00 0.00 57 1019.2
20260904020656 21 228 0.0 1.6 0.00 0.00 0.00 56 1019.1
20260904020155 21 228 0.0 1.6 0.00 0.00 0.00 55 1019.1
20260904015651 21 228 0.0 1.6 0.00 0.00 0.00 53 1019.1
20260904015153 22 228 0.0 3.2 0.00 0.00 0.00 52 1019.2
20260904014652 22 216 0.0 3.2 0.00 0.00 0.00 51 1019.1
20260904014152 22 215 0.0 3.2 0.00 0.00 0.00 50 1019.2
20260904013645 22 216 0.0 4.8 0.00 0.00 0.00 49 1019.1
20260904013144 23 268 0.0 4.8 0.00 0.00 0.00 49 1019.1
20260904012642 23 268 1.6 9.7 0.00 0.00 0.00 48 1019.2
20260904012140 23 149 1.6 9.7 0.00 0.00 0.00 47 1019.1
20260904011640 23 160 1.6 9.7 0.00 0.00 0.00 46 1019.2
20260904011133 24 150 1.6 9.7 0.00 0.00 0.00 46 1019.1
20260904010904 24 147 1.6 9.7 0.00 0.00 0.00 45 1019.1
20260904010135 25 244 1.6 9.7 0.00 0.00 0.00 44 1019.1
20260904005634 25 165 1.6 11.3 0.00 0.00 0.00 43 1019.1
20260904005134 25 256 1.6 11.3 0.00 0.00 0.00 42 1019.2
20260904004634 25 242 0.0 11.3 0.00 0.00 0.00 42 1019.2
20260904004403 25 241 1.6 11.3 0.00 0.00 0.00 43 1019.3
20260904003631 25 250 3.2 11.3 0.00 0.00 0.00 42 1019.3
20260904003130 25 261 3.2 11.3 0.00 0.00 0.00 44 1019.2
20260904002631 25 268 3.2 12.9 0.00 0.00 0.00 43 1019.2
20260904002128 25 157 3.2 12.9 0.00 0.00 0.00 42 1019.3
20260904001630 25 250 3.2 12.9 0.00 0.00 0.00 43 1019.2
20260904001122 25 266 4.8 12.9 0.00 0.00 0.00 43 1019.3
20260904000622 25 158 3.2 12.9 0.00 0.00 0.00 45 1019.3
20260904000122 25 264 4.8 12.9 0.00 0.00 0.00 45 1019.3
20260903235623 25 185 4.8 14.5 0.00 0.00 0.00 45 1019.3
20260903235354 25 244 4.8 14.5 0.00 0.00 0.00 45 1019.4
20260903234622 25 264 4.8 14.5 0.00 0.00 0.00 46 1019.4
20260903234117 25 150 3.2 14.5 0.00 0.00 0.00 47 1019.3
20260903233617 24 225 3.2 14.5 0.00 0.00 0.00 46 1019.3
20260903233116 24 250 1.6 9.7 0.00 0.00 0.00 48 1019.3
20260903232616 24 279 3.2 9.7 0.00 0.00 0.00 50 1019.4
20260903232117 24 243 3.2 9.7 0.00 0.00 0.00 49 1019.4
20260903231616 24 246 1.6 17.7 0.00 0.00 0.00 49 1019.4
20260903231111 24 161 0.0 17.7 0.00 0.00 0.00 51 1019.4
20260903230843 24 221 3.2 19.3 0.00 0.00 0.00 50 1019.7
20260903230343 24 188 4.8 19.3 0.00 0.00 0.00 49 1019.6
20260903225611 25 250 3.2 12.9 0.00 0.00 0.00 49 1019.7
20260903225109 25 261 3.2 12.9 0.00 0.00 0.00 48 1019.8
20260903224608 25 167 3.2 12.9 0.00 0.00 0.00 48 1019.8
20260903224101 25 280 3.2 12.9 0.00 0.00 0.00 48 1019.8
20260903223558 24 244 3.2 12.9 0.00 0.00 0.00 50 1019.8
20260903223059 24 173 3.2 9.7 0.00 0.00 0.00 52 1020.0
20260903222600 24 195 3.2 9.7 0.00 0.00 0.00 52 1019.9
20260903222059 24 243 3.2 16.1 0.00 0.00 0.00 50 1020.0
20260903221558 25 245 1.6 16.1 0.00 0.00 0.00 49 1020.0
20260903221051 25 238 3.2 17.7 0.00 0.00 0.00 47 1020.2
20260903220552 25 233 3.2 17.7 0.00 0.00 0.00 46 1020.0
20260903220053 25 279 3.2 17.7 0.00 0.00 0.00 48 1020.2
20260903215552 25 154 4.8 17.7 0.00 0.00 0.00 45 1020.2
20260903215052 25 129 4.8 17.7 0.00 0.00 0.00 44 1020.2
20260903214825 25 265 6.4 17.7 0.00 0.00 0.00 46 1020.3
20260903214046 25 275 6.4 17.7 0.00 0.00 0.00 45 1020.4
20260903213546 25 191 4.8 12.9 0.00 0.00 0.00 47 1020.4
20260903213318 25 235 4.8 12.9 0.00 0.00 0.00 46 1020.5
20260903212817 25 251 4.8 14.5 0.00 0.00 0.00 46 1020.5
20260903212047 25 145 3.2 14.5 0.00 0.00 0.00 45 1020.5
20260903211546 25 155 1.6 9.7 0.00 0.00 0.00 49 1020.5
20260903211313 25 300 3.2 17.7 0.00 0.00 0.00 48 1020.5
20260903210542 25 275 4.8 17.7 0.00 0.00 0.00 48 1020.7
20260903210043 25 250 4.8 19.3 0.00 0.00 0.00 47 1020.7
20260903205540 25 281 4.8 19.3 0.00 0.00 0.00 49 1020.7
20260903205040 25 264 3.2 14.5 0.00 0.00 0.00 50 1020.6
20260903204540 25 169 3.2 16.1 0.00 0.00 0.00 49 1020.7
20260903204034 25 167 3.2 16.1 0.00 0.00 0.00 48 1021.0
20260903203534 25 210 1.6 11.3 0.00 0.00 0.00 50 1021.0
20260903203035 25 247 1.6 12.9 0.00 0.00 0.00 47 1021.0
20260903202534 25 214 3.2 14.5 0.00 0.00 0.00 49 1021.0
20260903202034 25 233 4.8 14.5 0.00 0.00 0.00 48 1021.1
20260903201535 25 257 4.8 16.1 0.00 0.00 0.00 45 1021.0
20260903201029 25 128 4.8 16.1 0.00 0.00 0.00 45 1021.1
20260903200530 25 244 4.8 16.1 0.00 0.00 0.00 47 1021.1
20260903200028 25 168 4.8 19.3 0.00 0.00 0.00 45 1021.2
20260903195759 25 261 4.8 19.3 0.00 0.00 0.00 46 1021.2
20260903195028 25 261 4.8 19.3 0.00 0.00 0.00 46 1021.2
20260903194528 25 216 4.8 19.3 0.00 0.00 0.00 49 1021.5
20260903194021 25 179 3.2 16.1 0.00 0.00 0.00 48 1021.3
20260903193523 25 142 3.2 16.1 0.00 0.00 0.00 49 1021.3
20260903193024 25 150 4.8 20.9 0.00 0.00 0.00 49 1021.5
20260903192523 25 268 4.8 20.9 0.00 0.00 0.00 49 1021.6
20260903192023 24 188 3.2 19.3 0.00 0.00 0.00 53 1021.6
20260903191522 23 255 3.2 12.9 0.00 0.00 0.00 53 1021.7
20260903191015 23 234 3.2 12.9 0.00 0.00 0.00 53 1021.8
20260903190517 23 247 3.2 12.9 0.00 0.00 0.00 52 1021.8
20260903190017 23 170 3.2 12.9 0.00 0.00 0.00 53 1021.9
20260903185747 23 55 3.2 14.5 0.00 0.00 0.00 54 1021.9
20260903185016 23 157 3.2 14.5 0.00 0.00 0.00 56 1022.0
20260903184518 23 169 4.8 17.7 0.00 0.00 0.00 55 1022.0
20260903184014 23 203 4.8 17.7 0.00 0.00 0.00 57 1022.2
20260903183511 23 257 4.8 17.7 0.00 0.00 0.00 55 1022.2
20260903183011 23 265 4.8 17.7 0.00 0.00 0.00 55 1022.3
20260903182510 24 244 4.8 14.5 0.00 0.00 0.00 54 1022.3
20260903182010 23 157 3.2 14.5 0.00 0.00 0.00 54 1022.3
20260903181510 24 162 4.8 17.7 0.00 0.00 0.00 53 1022.4
20260903181005 23 209 4.8 17.7 0.00 0.00 0.00 52 1022.5
20260903180735 23 262 3.2 19.3 0.00 0.00 0.00 54 1022.5
20260903180237 23 147 4.8 19.3 0.00 0.00 0.00 54 1022.6
20260903175504 23 156 4.8 16.1 0.00 0.00 0.00 53 1022.6
20260903175235 23 226 4.8 14.5 0.00 0.00 0.00 52 1022.8
20260903174504 23 154 4.8 12.9 0.00 0.00 0.00 54 1022.5
20260903173958 23 248 3.2 12.9 0.00 0.00 0.00 52 1022.6
20260903173456 23 168 4.8 14.5 0.00 0.00 0.00 53 1022.6
20260903172955 23 231 4.8 14.5 0.00 0.00 0.00 55 1022.5
20260903172724 24 86 3.2 16.1 0.00 0.00 0.00 55 1022.6
20260903171952 23 164 1.6 16.1 0.00 0.00 0.00 56 1022.6
20260903171450 23 216 3.2 11.3 0.00 0.00 0.00 55 1022.6
20260903170948 23 227 4.8 14.5 0.00 0.00 0.00 53 1022.5
20260903170446 23 250 4.8 14.5 0.00 0.00 0.00 57 1022.5
20260903165946 23 160 4.8 14.5 0.00 0.00 0.00 59 1022.5
20260903165447 23 163 4.8 16.1 0.00 0.00 0.00 58 1022.6
20260903164948 23 149 3.2 16.1 0.00 0.00 0.00 59 1022.5
20260903164440 23 164 3.2 16.1 0.00 0.00 0.00 58 1022.4
20260903163939 23 214 4.8 16.1 0.00 0.00 0.00 59 1022.5
20260903163440 23 303 4.8 14.5 0.00 0.00 0.00 61 1022.5
20260903162940 22 222 3.2 14.5 0.00 0.00 0.00 60 1022.4
20260903162441 23 261 3.2 14.5 0.00 0.00 0.00 61 1022.4
20260903161940 22 250 4.8 12.9 0.00 0.00 0.00 61 1022.4
20260903161434 22 232 4.8 12.9 0.00 0.00 0.00 60 1022.5
20260903160935 22 141 3.2 12.9 0.00 0.00 0.00 60 1022.4
20260903160435 22 237 3.2 12.9 0.00 0.00 0.00 61 1022.4
20260903155934 22 230 3.2 12.9 0.00 0.00 0.00 60 1022.5
20260903155434 22 131 3.2 12.9 0.00 0.00 0.00 58 1022.5
20260903154934 22 246 3.2 12.9 0.00 0.00 0.00 58 1022.6
20260903154427 23 251 1.6 12.9 0.00 0.00 0.00 58 1022.6
20260903153929 23 255 1.6 11.3 0.00 0.00 0.00 55 1022.5
20260903153429 22 209 4.8 11.3 0.00 0.00 0.00 53 1022.5
20260903152929 22 138 3.2 11.3 0.00 0.00 0.00 52 1022.5
20260903152659 22 171 1.6 9.7 0.00 0.00 0.00 51 1022.5
20260903151929 22 207 1.6 8.0 0.00 0.00 0.00 49 1022.5
20260903151425 22 205 3.2 8.0 0.00 0.00 0.00 47 1022.5
20260903150925 22 150 3.2 8.0 0.00 0.00 0.00 48 1022.5
20260903150422 22 138 1.6 8.0 0.00 0.00 0.00 46 1022.5
20260903145654 22 233 1.6 8.0 0.00 0.00 0.00 48 1022.5
20260903144922 22 112 0.0 6.4 0.00 0.00 0.00 47 1022.4
20260903144655 22 155 0.0 4.8 0.00 0.00 0.00 49 1022.4
20260903143919 22 156 0.0 4.8 0.00 0.00 0.00 49 1022.4
20260903143421 21 143 0.0 3.2 0.00 0.00 0.00 54 1022.3
20260903142918 20 143 0.0 3.2 0.00 0.00 0.00 61 1022.4
20260903141916 18 100 0.0 0.0 0.00 0.00 0.00 70 1022.3
20260903141414 18 100 0.0 0.0 0.00 0.00 0.00 70 1022.3
20260903140914 17 100 0.0 0.0 0.00 0.00 0.00 73 1022.3
20260903140414 16 99 0.0 0.0 0.00 0.00 0.00 74 1022.3
20260903135913 16 100 0.0 0.0 0.00 0.00 0.00 76 1022.4
20260903135641 15 100 0.0 0.0 0.00 0.00 0.00 77 1022.3
20260903134912 15 100 0.0 0.0 0.00 0.00 0.00 79 1022.3
20260903134404 14 99 0.0 0.0 0.00 0.00 0.00 82 1022.2
20260903133902 13 100 0.0 0.0 0.00 0.00 0.00 86 1022.2
20260903133400 12 100 0.0 0.0 0.00 0.00 0.00 89 1022.0
20260903132859 12 100 0.0 0.0 0.00 0.00 0.00 89 1021.9
20260903132400 12 99 0.0 0.0 0.00 0.00 0.00 88 1021.8
20260903131852 11 100 0.0 0.0 0.00 0.00 0.00 88 1021.8
20260903131351 11 99 0.0 0.0 0.00 0.00 0.00 89 1021.8
20260903130851 11 100 0.0 0.0 0.00 0.00 0.00 89 1021.8
20260903130349 11 100 0.0 0.0 0.00 0.00 0.00 89 1021.7
20260903125851 11 99 0.0 0.0 0.00 0.00 0.00 89 1021.7
20260903125351 11 100 0.0 0.0 0.00 0.00 0.00 89 1021.7
20260903124843 11 99 0.0 0.0 0.00 0.00 0.00 89 1021.7
20260903124341 11 100 0.0 0.0 0.00 0.00 0.00 90 1021.6
20260903123841 11 99 0.0 0.0 0.00 0.00 0.00 89 1021.6
20260903123338 11 100 0.0 0.0 0.00 0.00 0.00 89 1021.6
20260903122839 11 99 0.0 0.0 0.00 0.00 0.00 89 1021.5
20260903121832 11 100 0.0 0.0 0.00 0.00 0.00 88 1021.5
20260903121331 12 100 0.0 0.0 0.00 0.00 0.00 88 1021.5
20260903121100 12 100 0.0 1.6 0.00 0.00 0.00 88 1021.3
20260903120328 12 100 0.0 1.6 0.00 0.00 0.00 88 1021.5
20260903115830 12 100 0.0 0.0 0.00 0.00 0.00 87 1021.5
20260903115322 12 100 0.0 0.0 0.00 0.00 0.00 88 1021.5
20260903115053 12 100 0.0 0.0 0.00 0.00 0.00 88 1021.5
20260903114318 12 100 0.0 0.0 0.00 0.00 0.00 88 1021.3
20260903113816 12 99 0.0 0.0 0.00 0.00 0.00 88 1021.3
20260903113317 12 100 0.0 1.6 0.00 0.00 0.00 88 1021.3
20260903112307 12 100 0.0 1.6 0.00 0.00 0.00 88 1021.3
20260903111807 12 100 0.0 1.6 0.00 0.00 0.00 88 1021.3
20260903111536 12 99 0.0 0.0 0.00 0.00 0.00 87 1021.3
20260903110805 12 100 0.0 0.0 0.00 0.00 0.00 87 1021.2
20260903110301 12 99 0.0 0.0 0.00 0.00 0.00 87 1021.2
20260903105802 12 100 0.0 0.0 0.00 0.00 0.00 87 1021.2
20260903105301 12 100 0.0 0.0 0.00 0.00 0.00 87 1021.3
20260903104801 13 100 0.0 0.0 0.00 0.00 0.00 86 1021.3
20260903103758 13 100 0.0 0.0 0.00 0.00 0.00 85 1021.3
20260903103257 13 100 0.0 0.0 0.00 0.00 0.00 84 1021.3
20260903102253 13 100 0.0 3.2 0.00 0.00 0.00 83 1021.5
20260903101753 13 100 0.0 3.2 0.00 0.00 0.00 83 1021.5
20260903101523 13 100 0.0 3.2 0.00 0.00 0.00 83 1021.6
20260903100753 13 100 0.0 3.2 0.00 0.00 0.00 83 1021.7
20260903100250 13 100 0.0 3.2 0.00 0.00 0.00 84 1021.7
20260903095751 13 99 0.0 3.2 0.00 0.00 0.00 84 1021.7
20260903095251 13 98 0.0 1.6 0.00 0.00 0.00 85 1021.7
20260903094748 13 98 0.0 1.6 0.00 0.00 0.00 85 1021.7
20260903094247 13 98 0.0 3.2 0.00 0.00 0.00 85 1021.7
20260903093747 13 98 0.0 3.2 0.00 0.00 0.00 86 1021.6
20260903093243 13 98 0.0 4.8 0.00 0.00 0.00 86 1021.6
20260903093012 13 98 0.0 4.8 0.00 0.00 0.00 87 1021.7
20260903092240 12 114 0.0 3.2 0.00 0.00 0.00 87 1021.7
20260903092011 12 113 0.0 3.2 0.00 0.00 0.00 86 1021.7
20260903091241 12 113 0.0 3.2 0.00 0.00 0.00 86 1021.7
20260903090740 13 113 0.0 1.6 0.00 0.00 0.00 85 1021.7
20260903090507 13 114 0.0 1.6 0.00 0.00 0.00 85 1021.7
20260903085736 13 114 0.0 1.6 0.00 0.00 0.00 85 1021.7
20260903085236 13 105 0.0 1.6 0.00 0.00 0.00 84 1021.7
20260903084737 13 105 0.0 1.6 0.00 0.00 0.00 84 1021.7
20260903084235 13 105 0.0 1.6 0.00 0.00 0.00 84 1021.7
20260903083734 13 105 0.0 1.6 0.00 0.00 0.00 84 1021.7
20260903082730 13 105 0.0 4.8 0.00 0.00 0.00 84 1021.8
20260903082228 13 105 0.0 4.8 0.00 0.00 0.00 84 1021.8
20260903081728 13 105 0.0 4.8 0.00 0.00 0.00 84 1021.8
20260903081228 13 105 0.0 1.6 0.00 0.00 0.00 84 1021.8
20260903080729 13 105 0.0 1.6 0.00 0.00 0.00 84 1021.9
20260903080222 13 105 0.0 4.8 0.00 0.00 0.00 85 1021.9
20260903075721 13 105 0.0 4.8 0.00 0.00 0.00 85 1021.9
20260903075218 13 105 1.6 4.8 0.00 0.00 0.00 85 1022.0
20260903074717 13 105 0.0 4.8 0.00 0.00 0.00 85 1022.0
20260903074218 13 86 0.0 3.2 0.00 0.00 0.00 85 1022.0
20260903073715 13 85 0.0 4.8 0.00 0.00 0.00 85 1022.0
20260903073445 13 103 0.0 4.8 0.00 0.00 0.00 84 1022.0
20260903072713 13 110 0.0 4.8 0.00 0.00 0.00 83 1022.0
20260903072213 14 110 1.6 4.8 0.00 0.00 0.00 83 1022.0
20260903071210 13 86 0.0 4.8 0.00 0.00 0.00 84 1022.0
20260903070709 13 83 0.0 6.4 0.00 0.00 0.00 86 1022.0
20260903070207 13 83 0.0 6.4 0.00 0.00 0.00 87 1022.0
20260903065205 13 106 0.0 1.6 0.00 0.00 0.00 88 1021.9
20260903064705 13 107 0.0 1.6 0.00 0.00 0.00 88 1021.9
20260903064204 13 107 0.0 1.6 0.00 0.00 0.00 88 1022.0
20260903063659 13 107 0.0 1.6 0.00 0.00 0.00 88 1021.9
20260903063155 13 108 0.0 1.6 0.00 0.00 0.00 88 1022.0
20260903062925 13 107 0.0 0.0 0.00 0.00 0.00 88 1022.0